Location: Peterborough
(44.3000°N, 78.3333°W)
Time: 07:02:44
(UTC-05:00)

ISS - Visible Passes

Search period start: 06 March 2026 00:00
Search period end: 16 March 2026 01:00
Orbit: 416 x 427 km, 51.6° (Epoch: 6 March)

Date Brightness Start Highest point End Pass type
(mag) Time Alt. Az. Time Alt. Az. Time Alt. Az.
6 Mar -1.4 05:33:17 11° SSW 05:33:17 11° SSW 05:33:39 10° SSW visible
9 Mar -1.3 20:53:31 10° S 20:54:06 13° S 20:54:06 13° S visible
10 Mar -1.9 20:07:27 10° SSE 20:09:26 15° SE 20:09:56 14° ESE visible
10 Mar -0.9 21:42:28 10° WSW 21:42:59 14° WSW 21:42:59 14° WSW visible
11 Mar -3.7 20:55:29 10° SW 20:58:39 61° SSE 20:58:39 61° SSE visible
12 Mar -3.1 20:08:41 10° SSW 20:11:52 38° SE 20:14:07 17° ENE visible
12 Mar -1.4 21:45:30 10° W 21:47:09 24° WNW 21:47:09 24° WNW visible
13 Mar -3.2 20:58:14 10° WSW 21:01:35 54° NNW 21:02:27 40° NNE visible
14 Mar -3.7 20:11:03 10° WSW 20:14:27 81° NNW 20:17:37 12° ENE visible
14 Mar -1.3 21:48:44 10° WNW 21:50:37 22° NW 21:50:37 22° NW visible
15 Mar -2.1 21:01:21 10° W 21:04:26 31° NNW 21:05:39 24° NNE visible
